Abilene, TX

9:18 AM CDT on October 22, 2017 (GMT -0500)
Abilene Regional

Weather History for KABI - September, 2014

Change the Weather History Date:

Wednesday, September 3, 2014

  Actual Average Record
Temperature  
Mean Temperature 86 °F 80 °F  
Max Temperature 96 °F 91 °F 104 °F (2000)
Min Temperature 76 °F 68 °F 52 °F (1974)
Degree Days  
Heating Degree Days 0 0  
Month to date heating degree days 0 0  
Since 1 July heating degree days 0 0  
Cooling Degree Days 21 15  
Month to date cooling degree days 68 45  
Year to date cooling degree days 2252 1990  
Growing Degree Days 36 (Base 50)    
Moisture  
Dew Point 65 °F    
Average Humidity 54    
Maximum Humidity 74    
Minimum Humidity 34    
Precipitation  
Precipitation 0.00 in 0.08 in 4.50 in (1961)
Month to date precipitation 0.00 0.24  
Year to date precipitation 10.50 17.20  
Sea Level Pressure  
Sea Level Pressure 29.88 in    
Wind  
Wind Speed 16 mph (South)    
Max Wind Speed 26 mph    
Max Gust Speed 36 mph    
Visibility 10 miles    
Events      
T = Trace of Precipitation, MM = Missing Value Source: NWS Daily Summary

Daily Weather History Graph

Daily Weather History Graph

Search for Another Location

Airport or City:

Trip Planner

Search our weather history database for the weather conditions in past years. The results will help you decide how hot, cold, wet, or windy it might be!

Date:

Astronomy

Sep. 03, 2014 Rise Set
Actual Time 7:15 AM CDT 8:00 PM CDT
Civil Twilight 6:50 AM CDT 8:25 PM CDT
Nautical Twilight 6:20 AM CDT 8:54 PM CDT
Astronomical Twilight 5:50 AM CDT 9:24 PM CDT
Moon 3:33 PM CDT (9/3) 1:20 AM CDT (9/3)
Length of Visible Light 13h 35m
Length of Day
12h 45m
Waxing Gibbous, 64% of the Moon is Illuminated
Sep 3
Waxing Gibbous
Sep 8
Full
Sep 15
Last Quarter
Sep 24
New
Oct 1
First Quarter

Hourly Weather History & Observations

Time (CDT) Temp. Heat Index Dew Point Humidity Pressure Visibility Wind Dir Wind Speed Gust Speed Precip Events Conditions
12:52 AM 84.0 °F 86.5 °F 66.9 °F 56% 29.85 in 10.0 mi South 16.1 mph 21.9 mph N/A   Clear
1:52 AM 82.9 °F 85.4 °F 66.9 °F 58% 29.84 in 10.0 mi South 15.0 mph - N/A   Clear
2:52 AM 81.0 °F 83.3 °F 66.9 °F 62% 29.85 in 10.0 mi South 11.5 mph - N/A   Clear
3:52 AM 80.1 °F 82.3 °F 66.9 °F 64% 29.86 in 10.0 mi South 12.7 mph - N/A   Clear
4:52 AM 78.1 °F - 68.0 °F 71% 29.86 in 10.0 mi South 11.5 mph - N/A   Clear
5:52 AM 77.0 °F - 68.0 °F 74% 29.88 in 10.0 mi South 10.4 mph - N/A   Clear
6:52 AM 75.9 °F - 66.9 °F 74% 29.89 in 10.0 mi South 12.7 mph - N/A   Clear
7:52 AM 75.9 °F - 66.9 °F 74% 29.92 in 10.0 mi South 11.5 mph - N/A   Clear
8:52 AM 79.0 °F - 66.9 °F 66% 29.92 in 10.0 mi South 13.8 mph - N/A   Clear
9:52 AM 82.0 °F 84.5 °F 66.9 °F 60% 29.92 in 10.0 mi SSW 19.6 mph 27.6 mph N/A   Clear
10:52 AM 86.0 °F 88.2 °F 66.0 °F 51% 29.92 in 10.0 mi SSW 19.6 mph - N/A   Clear
11:52 AM 89.1 °F 91.3 °F 66.0 °F 46% 29.92 in 10.0 mi South 17.3 mph 29.9 mph N/A   Partly Cloudy
12:52 PM 90.0 °F 92.4 °F 66.0 °F 45% 29.91 in 10.0 mi South 23.0 mph 29.9 mph N/A   Scattered Clouds
1:52 PM 93.0 °F 95.0 °F 64.9 °F 39% 29.88 in 10.0 mi South 21.9 mph 29.9 mph N/A   Scattered Clouds
2:52 PM 93.0 °F 94.6 °F 64.0 °F 38% 29.88 in 10.0 mi South 16.1 mph 32.2 mph N/A   Partly Cloudy
4:52 PM 93.0 °F 94.2 °F 63.0 °F 37% 29.84 in 10.0 mi SSW 19.6 mph 27.6 mph N/A   Scattered Clouds
5:52 PM 95.0 °F 95.6 °F 62.1 °F 33% 29.83 in 10.0 mi South 17.3 mph 26.5 mph N/A   Mostly Cloudy
6:52 PM 93.0 °F 93.8 °F 62.1 °F 36% 29.84 in 10.0 mi SSE 21.9 mph 29.9 mph N/A   Scattered Clouds
7:52 PM 86.0 °F 87.6 °F 64.9 °F 49% 29.86 in 10.0 mi South 23.0 mph 33.4 mph N/A   Partly Cloudy
8:52 PM 84.0 °F 84.5 °F 62.1 °F 47% 29.88 in 10.0 mi South 16.1 mph 29.9 mph N/A   Clear
9:52 PM 82.0 °F 83.0 °F 62.1 °F 51% 29.89 in 10.0 mi South 15.0 mph - N/A   Clear
10:52 PM 81.0 °F 82.5 °F 64.0 °F 56% 29.90 in 10.0 mi South 9.2 mph - N/A   Clear
11:52 PM 80.1 °F 81.7 °F 64.0 °F 58% 29.91 in 10.0 mi South 11.5 mph - N/A   Clear